This demonstration page uses our WeatherBlox Daily Observations layout. Learn more.

Left ArrowRight Arrow

36.17497, -115.13722

Hourly Observations for April 4, 2016

Temp ( °F °C ) Dew Point ( °F °C ) Humidity (%) Winds ( mph kmh ) Pressure ( in mb ) Visibility ( mi km ) Precip ( " mm )
12:53 am 00:53 Clear 66 18.9 22 -5.6 19 19 Calm 30.03 1017 10 16.0934 0 0
1:53 am 01:53 Clear 63 17.2 24 -4.4 23 23 NW 5 7 30.02 1017 10 16.0934 0 0
2:53 am 02:53 Clear 61 16.1 23 -5 23 23 N 6 9 30.02 1017 10 16.0934 0 0
3:53 am 03:53 Clear 60 15.6 23 -5 24 24 N 3 6 30.02 1017 10 16.0934 0 0
4:53 am 04:53 Clear 59 15 24 -4.4 26 26 NNW 6 9 30.03 1017 10 16.0934 0 0
5:53 am 05:53 Clear 59 15 24 -4.4 26 26 NW 6 9 30.04 1017 10 16.0934 0 0
6:53 am 06:53 Sunny 58 14.4 24 -4.4 27 27 NNW 6 9 30.07 1018 10 16.0934 0 0
7:53 am 07:53 Sunny 62 16.7 26 -3.3 25 25 NW 3 6 30.09 1019 10 16.0934 0 0
8:53 am 08:53 Sunny 67 19.4 23 -5 19 19 NNW 5 7 30.11 1020 10 16.0934 0 0
9:53 am 09:53 Sunny 71 21.7 22 -5.6 16 16 ESE 6 9 30.11 1020 10 16.0934 0 0
10:53 am 10:53 Sunny 74 23.3 23 -5 15 15 ESE 5 7 30.11 1020 10 16.0934 0 0
11:53 am 11:53 Sunny 77 25 25 -3.9 14 14 SE 5 7 30.09 1019 10 16.0934 0 0
12:53 pm 12:53 Sunny 82 27.8 25 -3.9 12 12 SSE 7 11 30.07 1018 10 16.0934 0 0
1:53 pm 13:53 Sunny 84 28.9 25 -3.9 11 11 S 16 26 30.03 1017 10 16.0934 0 0
2:53 pm 14:53 Sunny 84 28.9 26 -3.3 12 12 S 12 19 30.01 1016 10 16.0934 0 0
3:53 pm 15:53 Sunny 84 28.9 24 -4.4 11 11 WSW 8 13 29.99 1016 10 16.0934 0 0
4:53 pm 16:53 Sunny 85 29.4 23 -5 10 10 SW 9 15 29.98 1015 10 16.0934 0 0
5:53 pm 17:53 Sunny 84 28.9 22 -5.6 10 10 SW 10 17 29.98 1015 10 16.0934 0 0
6:53 pm 18:53 Sunny 82 27.8 22 -5.6 11 11 SW 7 11 29.99 1016 10 16.0934 0 0
7:53 pm 19:53 Clear 79 26.1 22 -5.6 12 12 Calm 29.99 1016 10 16.0934 0 0
8:53 pm 20:53 Clear 76 24.4 20 -6.7 12 12 NW 10 17 30.01 1016 10 16.0934 0 0
9:53 pm 21:53 Clear 72 22.2 23 -5 16 16 NNW 3 6 30.03 1017 10 16.0934 0 0
10:53 pm 22:53 Clear 70 21.1 26 -3.3 19 19 N 3 6 30.04 1017 10 16.0934 0 0
11:53 pm 23:53 Clear 68 20 27 -2.8 21 21 WNW 5 7 30.04 1017 10 16.0934 0 0

Powered by AerisWeather